Location: Marcé
(47.5801°N, 0.3280°W)
Time: 17:13:22
(UTC+01:00)

S-56A Canister/Altair - Pass Details

Date: 09 December 2021
Orbit: 633 x 2499 km, 38.9° (Epoch: 18 January)

Event Time Altitude Azimuth Distance (km) Brightness Sun altitude
Rises 22:49:29 0° 228° (SW) 5,944 12.2 -55.0°
Reaches altitude 10° 22:54:00 10° 222° (SW) 4,743 11.5 -55.6°
Enters shadow 22:54:21 11° 221° (SW) 4,651 11.5 -55.7°
